Regional Weather Roundup
Issued by NWS Memphis, TN

Home | Current Version | Previous Version | Text Only | Print | Product List | Glossary On
Versions: 1 2 3 4 5 6 7 8 9 10 11 12 13 14 15 16 17 18 19 20 21 22 23 24 25 26 27 28 29 30 31 32 33 34 35 36 37 38 39 40 41 42 43 44 45 46 47 48 49 50
000
ASUS44 KMEG 231410
RWRMEG
MEMPHIS CWA HOURLY WEATHER ROUNDUP
NATIONAL WEATHER SERVICE MEMPHIS TN
900 AM CDT WED APR 23 2014

...WEST TENNESSEE...

CITY           SKY/WX    TMP DP  RH WIND       PRES   REMARKS
MEMPHIS INTL   MOSUNNY   64  40  41 E9        30.05S
NWS MEMPHIS      N/A     62 N/A N/A MISG        N/A
JACKSON        SUNNY     60  41  49 E7        30.06S
LEXINGTON      SUNNY     55  41  58 E6        30.06R
DYERSBURG      SUNNY     59  37  44 E9        30.08S
UNION CITY     SUNNY     55  43  62 E6        30.08R
PARIS          SUNNY     55  38  52 E10       30.09R


...EASTERN ARKANSAS...

CITY           SKY/WX    TMP DP  RH WIND       PRES   REMARKS
JONESBORO      SUNNY     59  43  55 NE12      30.06R
WEST MEMPHIS   SUNNY     63  43  48 E12       30.04R
BATESVILLE     SUNNY     55  46  71 CALM      30.07R
NEWPORT        SUNNY     59  46  61 NE7       30.08R
WALNUT RIDGE   SUNNY     59  43  55 NE8       30.07S
BLYTHEVILLE    SUNNY     60  44  55 E9        30.07S
SEARCY         SUNNY     60  48  64 E7        30.08R
STUTTGART      SUNNY     63  45  51 E10       30.06R
PINE BLUFF     SUNNY     62  50  64 E6        30.05R
MONTICELLO     SUNNY     62  51  67 E5        30.03S


...NORTH MISSISSIPPI...

CITY           SKY/WX    TMP DP  RH WIND       PRES   REMARKS
TUPELO         SUNNY     62  42  47 E9        30.04S
OXFORD         SUNNY     59  41  51 E7        30.06S
OLIVE BRANCH   MOSUNNY   57  43  58 E8        30.05S
TUNICA         SUNNY     61  45  55 E8        30.06S
CLARKSDALE       N/A     63  46  55 NE8       30.06R
CORINTH        SUNNY     59  41  51 E7        30.05S
GRENADA        SUNNY     61  45  55 E6        30.05R
GREENWOOD      SUNNY     63  46  54 NE8       30.03R
COLUMBUS       SUNNY     63  48  58 NE12      30.03R
STARKVILLE     FAIR      63  46  55 NE8       30.02F
GOLDEN TRIANGL SUNNY     64  48  55 NE7       30.05R


...SOUTHEAST MISSOURI...

CITY           SKY/WX    TMP DP  RH WIND       PRES   REMARKS
DONIPHAN         N/A     59  37  43 E6          N/A
WEST PLAINS    SUNNY     57  32  38 E14       30.06F
POPLAR BLUFF   SUNNY     58  40  51 NE7       30.07S
CAPE GIRARDEAU SUNNY     57  42  57 E8        30.10R


...NORTHWEST ALABAMA...

CITY           SKY/WX    TMP DP  RH WIND       PRES   REMARKS
MUSCLE SHOALS  SUNNY     62  43  49 NE7       30.06R


...MIDDLE TENNESSEE...

CITY           SKY/WX    TMP DP  RH WIND       PRES   REMARKS
NASHVILLE      SUNNY     57  33  40 NE15      30.09R
CLARKSVILLE    SUNNY     53  36  52 E12       30.10R
DICKSON        SUNNY     54  34  47 E9        30.07R
COLUMBIA       SUNNY     57  46  67 NE9       30.06R
LEWISBURG      SUNNY     56  38  50 E9        30.06R


...WESTERN KENTUCKY...

CITY           SKY/WX    TMP DP  RH WIND       PRES   REMARKS
PADUCAH        SUNNY     57  38  48 E14       30.10R
FORT CAMPBELL  SUNNY     54  35  48 E12       30.10R


...CENTRAL ARKANSAS...

CITY           SKY/WX    TMP DP  RH WIND       PRES   REMARKS
LITTLE ROCK    SUNNY     62  46  55 E12       30.06R


SKY/WX REPORTED AS FAIR MEANS FEW OR NO CLOUDS BELOW
12 THOUSAND FEET.




USA.gov is the U.S. government's official web portal to all federal, state and local government web resources and services.